User: anonymous
Location: Bowman Observatory
(41.0326°N, 73.6210°W)
Time: 07:42:25
(UTC-04:00)
Language:

Cosmos 2298 Rocket - Orbit

View from above orbital plane
View from above orbital plane
View from above satellite
View from above satellite

Ground track
Ground track

The orbit data is extracted from the following two-line orbital elements,

1 23432U 94083B   14113.94817035  .00000185  00000-0  76596-4 0  8221
2 23432 074.0339 241.0797 0005646 356.4549 137.4023 14.33251551 11494
Epoch (UTC): 23 April 2014 22:45:21
Eccentricity: 0.0005646
inclination: 74.0339°
perigee height: 777 km
apogee height: 785 km
right ascension of ascending node: 241.0797°
argument of perigee: 356.4549°
revolutions per day: 14.33251551
mean anomaly at epoch: 137.4023°
orbit number at epoch: 1149

The dashed part of the orbit path shows where the satellite is in the earth's shadow,  

DLR